Terminal Aerodrome Forecast
Issued by NWS Houston/Galveston, TX

Home | Current Version | Previous Version | Text Only | Print | Product List | Glossary On
Versions: 1 2 3 4 5 6 7 8 9 10 11 12 13 14 15 16 17 18 19 20 21 22 23 24 25 26 27 28 29 30 31 32 33 34 35 36 37 38 39 40 41 42 43 44 45 46 47 48 49 50
000
FTUS44 KHGX 032320
TAFGLS
TAF
KGLS 032320Z 0400/0424 15011KT 4SM BR MIFG SCT002 BKN019
     FM040100 14009KT 1/4SM FG OVC002
     FM041600 13009KT 1SM BR MIFG OVC005
     FM041900 14010KT 3SM BR MIFG VCSH OVC007=

USA.gov is the U.S. government's official web portal to all federal, state and local government web resources and services.